Location: Unspecified
(0.0000°N, 0.0000°E)
Time: 05:00:26
(UTC+00:00)

Tiangong - Visible Passes

Search period start: 28 April 2025 00:00
Search period end: 08 May 2025 00:00
Orbit: 380 x 384 km, 41.5° (Epoch: 27 April)

Date Brightness Start Highest point End Pass type
(mag) Time Alt. Az. Time Alt. Az. Time Alt. Az.
28 Apr -0.2 19:30:23 10° WNW 19:32:49 25° SW 19:32:49 25° SW visible
29 Apr -2.1 18:29:20 10° NW 18:32:28 79° SW 18:35:36 10° SE visible
30 Apr 0.8 19:07:40 10° WSW 19:08:27 11° SW 19:09:14 10° SSW visible
01 May 0.2 04:59:05 10° S 05:01:28 20° SE 05:03:51 10° E visible
03 May -1.7 04:36:07 49° SSE 04:36:26 52° SE 04:39:29 10° ENE visible
04 May -0.3 05:10:43 14° WNW 05:12:05 18° NW 05:14:19 10° N visible
05 May 0.3 04:13:00 19° NNE 04:13:00 19° NNE 04:14:05 10° NNE visible
